Aeroporto :
LOGIN :

Iscrizione | Disclaimer

   EN    FR    IT 

 










Sommario :    VFR   VFR Marginale   IFR   IFR Intensivo   IFR Molto Intensivo
Visibilità : 
Base nubi : 
>= 8 km
>= 3000ft
5 / 8 km
1000 / 3000 ft
1500m / 5 km
500 / 1000 ft
800 / 1500m
200 / 500 ft
< 800m
< 200 ft
Simboli :   Temporali  Nebbia  Neve Forte  Precipitazioni Forti  Vento > 20 kt
SIGMETs :   Varie  Temporali  Ghiacco  Turbolenza  Onda orograficha  Ceneri Vulcaniche







- Altitudine del aeroporto : 313 ft
- Codice IATA : LEH
- Carte del aeroporto


LFOH - Le Havre Octeville

ULTIMO METAR :
  • 262000Z AUTO 08017KT CAVOK 17/15 Q1022

METARs OBSOLETI :
  • 261930Z AUTO 07019KT CAVOK 18/16 Q1022
  • 261900Z AUTO 07018G28KT CAVOK 18/16 Q1022
  • 261830Z AUTO 07018KT CAVOK 19/16 Q1022
  • 261800Z AUTO 07017KT CAVOK 20/16 Q1022 TEMPO 05017G27KT
  • 261730Z AUTO 07016KT CAVOK 21/17 Q1022 TEMPO 05017G27KT

TAF TAF LFOH
Valido dal 26 a 12 ore il 27 a 12 ore UTC


261100Z 2612/2712 05015KT CAVOK
TEMPO 2612/2702 05017G27KT
ATIS : +33 2 35 54 64 93
Nessun NOTAM noto per questo aeroporto.



MetMap, La meteo Aeronautica in un colpo d'occhio ! - Copyright ORBIFLY Dicembre 2007 - Disclaimer

ORBIFLY MET'MAP TEAM :

Programmazione e sviluppo : Alexandra Zaïnal
Concezione e sviluppo : Baudouin d'Aumeries
Co-Programmazione e sviluppo : Marc-Olivier Méhu
Supporto tecnico e logistico : Manuel Goepfert
Aiuto per la traduzione : Arnaldo La Scala

Contatto : metmap@orbifly.com




FONTI E CREDITI :

   NOAA